Location: Newark
(45.8667°N, 9.7333°E)
Time: 05:03:56
(UTC+00:00)

Vanguard 3 - Pass Details

Date: 27 January 2020
Orbit: 508 x 3263 km, 33.3° (Epoch: 20 February)

Event Time Altitude Azimuth Distance (km) Brightness Sun altitude
Rises 17:46:19 0° 250° (WSW) 7,052 13.7 -15.3°
Reaches altitude 10° 17:51:04 10° 246° (WSW) 6,151 12.9 -16.1°
Maximum altitude 18:09:59 54° 178° (S) 3,478 10.3 -19.3°
Enters shadow 18:21:23 21° 113° (ESE) 4,293 10.3 -21.3°
Drops below altitude 10° 18:24:38 10° 107° (ESE) 4,885 - -21.9°
Sets 18:27:54 0° 103° (ESE) 5,576 - -22.4°
